Regional & State Weather Roundups


716 
ASUS41 KAKQ 180115
RWRAKQ
REGIONAL WEATHER ROUNDUP
NATIONAL WEATHER SERVICE WAKEFIELD VA
900 PM EDT TUE SEP 17 2019
Note: "fair" indicates few or no clouds below 12,000 feet with no
significant weather and/or obstructions to visibility. * = Denotes
station may not report precipitation (e.g., rain,snow,etc.),
thunder or fog.
VAZ042-051-052>054-056-180200-
NORTHERN VIRGINIA
  
CITY           SKY/WX    TMP DP  RH WIND       PRES   REMARKS
WASH NATIONAL  FAIR      75  57  53 CALM      30.11R                  
DULLES         FAIR      70  57  63 E6        30.11R                  
FORT BELVOIR   MOCLDY    69  60  75 CALM      30.11R                  
QUANTICO       CLOUDY    74  61  63 CALM      30.11R                  
FREDERICKSBRG* CLOUDY    70  66  88 CALM      30.10R                  
STAFFORD*      FAIR      65  65 100 CALM      30.15R                  
WARRENTON      MOCLDY    62  58  87 CALM      30.11S                  
CULPEPER*      MOCLDY    66  64  94 CALM      30.12S                  
MANASSAS*      CLOUDY    71  64  78 CALM      30.12R                  
LEESBURG*      FAIR      72  61  68 CALM      30.13R                  
WINCHESTER     FAIR      63  57  82 CALM      30.12R                  
FRONT ROYAL*   FAIR      64  63  94 CALM      30.11R                  
LURAY*         FAIR      66  63  88 CALM      30.13R                  
$$
VAZ048-049-060>072-079>083-180200-
CENTRAL AND SOUTH CENTRAL VIRGINIA
  
CITY           SKY/WX    TMP DP  RH WIND       PRES   REMARKS
RICHMOND       CLOUDY    72  63  73 E7        30.09R                  
CHESTERFIELD*  FAIR      72  63  73 E5        30.10R                  
PETERSBURG*    CLOUDY    70  61  73 E8        30.09S                  
HANOVER        FAIR      70  62  76 CALM      30.11R                  
TAPPAHANNOCK*  FAIR      67  64  90 CALM      30.11R                  
QUINTON*       FAIR      68  63  84 CALM      30.10R                  
CHARLOTTSVILLE MOCLDY    70  64  81 CALM      30.12R                  
GORDONSVILLE*  MOCLDY    68  68 100 CALM      30.11R                  
ORANGE*        MOCLDY    64  63  94 CALM      30.12R                  
LOUISA*        MOCLDY    64  62  96 NE3       30.15R                  
BUMPASS*       MOCLDY    66  64  94 W8        30.11R                  
FARMVILLE*     CLOUDY    69  67  94 CALM      30.09R                  
CREWE*         MOCLDY    68  65  91 CALM      30.09R                  
FORT PICKETT*  FAIR      68  68 100 E5        30.10R                  
CHASE CITY*    CLOUDY    70  65  82 CALM      30.09R                  
CLARKSVILLE*   CLOUDY    72  64  78 NE5       30.08R                  
SOUTH HILL*    MOCLDY    68  68 100 CALM      30.14R                  
LAWRENCEVILLE* MOCLDY    68  66  94 CALM      30.09R                  
EMPORIA*       CLOUDY    71  64  80 CALM      30.10R                  
$$
VAZ088>098-180200-
SOUTHEAST VIRGINIA
  
CITY           SKY/WX    TMP DP  RH WIND       PRES   REMARKS
NORFOLK        FAIR      71  58  63 NE10G22   30.07R                  
VIRGINIA BEACH MOCLDY    69  57  65 NE10      30.07R                  
NORFOLK NAVAL  FAIR      71  56  58 NE14      30.09R                  
WEST POINT*    FAIR      67  61  81 CALM      30.11S                  
SALUDA*        FAIR      70  60  70 E6        30.10R                  
NEWPORT NEWS   FAIR      70  51  51 NE12      30.08S                  
LANGLEY AFB    MOCLDY    69  57  63 E18       30.08R                  
FORT EUSTIS    NOT AVBL                                               
WILLIAMSBURG*  FAIR      66  63  88 CALM      30.10R                  
HR EXEC AP*    FAIR      69  60  73 NE7       30.08R                  
FRANKLIN*      FAIR      69  64  83 NE6       30.08R                  
US460-WAKEFLD  MOCLDY    69  61  75 CALM      30.08R                  
$$
VAZ020-022-025-037-045-180200-
WEST CENTRAL AND SOUTHWEST VIRGINIA
  
CITY           SKY/WX    TMP DP  RH WIND       PRES   REMARKS
STAUNTON*      CLOUDY    67  64  89 CALM      30.16R                  
WAYNESBORO*    CLOUDY    68  63  85 SE3       30.14S                  
HOT SPRINGS VA DRZL/FOG  61  61 100 E5        30.23R VSB<1/4          
LYNCHBURG      CLOUDY    69  65  86 NE6       30.12R                  
DANVILLE       CLOUDY    72  65  78 NE8       30.08R                  
SOUTH BOSTON*  CLOUDY    69  67  95 N3        30.09R                  
MARTINSVILLE   CLOUDY    72  70  94 CALM      30.12R                  
ROANOKE        CLOUDY    72  65  78 E10       30.14R                  
BLACKSBURG     CLOUDY    70  67  90 E9        30.17R                  
DUBLIN*        CLOUDY    72  65  80 SE10      30.15R                  
MARION*        FAIR      74  67  78 E6        30.15R                  
HILLSVILLE*    CLOUDY    69  66  92 E7        30.14R                  
RICHLANDS*     FAIR      73  58  60 N3        30.13R                  
WISE*          FAIR      73  57  56 N6        30.14R                  
ABINGDON*      FAIR      73  62  67 CALM      30.08R                  
$$
MDZ021>025-VAZ099-100-180200-
SOUTHERN MARYLAND AND THE DELMARVA PENINSULA
  
CITY           SKY/WX    TMP DP  RH WIND       PRES   REMARKS
PATUXENT RIVER FAIR      71  58  63 SE9       30.10R                  
BAY BRIDGE APT FAIR      70  55  60 SE7       30.12R                  
LEONARDTOWN    FAIR      68  59  73 E3        30.12S                  
DOVER          FAIR      64  54  68 E3        30.12R                  
GEORGETOWN     FAIR      63  55  75 CALM      30.13R                  
EASTON         CLEAR     66  55  68 E5        30.15R                  
CAMBRIDGE      CLEAR     66  54  63 E5        30.12R                  
SALISBURY      FAIR      60  53  77 CALM      30.11S                  
TANGIER        FAIR      70  57  64 E10       30.10S                  
OCEAN CITY     FAIR      68  52  56 E8        30.11S                  
WALLOPS ISLAND FAIR      67  55  65 NE10      30.11R                  
ACCOMACK*      FAIR      63  57  79 NE5       30.10S                  
$$
NCZ012>017-030>032-180200-
NORTH CENTRAL AND EASTERN NORTH CAROLINA
  
CITY           SKY/WX    TMP DP  RH WIND       PRES   REMARKS
ROANOKE RAPIDS FAIR      68  66  94 NE6       30.07R                  
RALEIGH        CLOUDY    71  68  90 NE7       30.06R                  
ELIZABETH CITY FAIR      72  62  71 NE16      30.05R                  
AHOSKIE*       MOCLDY    70  64  83 NE5       30.07R                  
EDENTON*       FAIR      71  67  87 NE6       30.05S                  
CURRITUCK*     FAIR      71  62  73 N18       30.06R                  
KILL DEVIL HLS MOCLDY    71  60  67 NE10G21   30.02S                  
MANTEO         NOT AVBL                                               
CAPE HATTERAS  FAIR     N/A N/A N/A NE10G28   29.98R                  
TARBORO*       CLOUDY    72  65  79 NE8       30.05R                  
GOLDSBORO      FAIR      74  68  81 NE7       30.01R                  
WASHINGTON     CLOUDY    72  64  77 NE7       30.04R                  
GREENVILLE     FAIR      73  63  68 NE9G16    30.06R                  
NEW BERN       CLOUDY    74  65  73 NE15      30.02R                  
WILMINGTON     FAIR      78  64  61 NE13      29.98R                  
$$
VAZ048-180200-
ELSEWHERE
  
CITY           SKY/WX    TMP DP  RH WIND       PRES   REMARKS
HARRISBURG PA  FAIR      66  48  52 CALM      30.12R                  
BALTIMORE      FAIR      72  55  55 CALM      30.11R                  
ANNAPOLIS      FAIR      76  61  59 SE13      30.11R                  
ANDREWS AFB    FAIR      65  58  77 CALM      30.10R                  
PHILADELPHIA   FAIR      69  48  47 SE8       30.13R                  
HENDERSON NC   FAIR      67  63  85 CALM      30.08R                  
GREENSBORO     MOCLDY    75  68  78 E15       30.06R                  
ROCKY MOUNT    CLOUDY    71  68  90 N5        30.05R                  
$$
VAZ100-180200-
MARINE
  
STATION/POSITION TIME  TEMP    WIND        PRES    WAVE   SWELL
                       AIR SEA DIR/SP/G            HT/PER HT/PER
                 (UTC) (F)     (DEG/KT/KT) (MB)    (FT/S) (FT/S)
CAPE MAY NJ      0024   66 75   80/  2/  3 1019.6
LEWES DE         0024   69 75  110/  6/  8 1020.1
15NM E FENWICK I 0050   69 72   60/ 16/ 17 1018.8R   5/ 6   2/12
OCEAN-CITY-INLET 0030           80/  8/ 11   N/A
44089 WALLOPS IS 0030      76                N/A     5/ 6   2/12
WACHAPREAGUE VA  0024   67 77   10/  5/  8 1019.0
THOMAS POINT MD  0100   72 76   90/ 13/ 14 1020.4R
GOOSES REEF MD   0100   71     120/ 14/ 17 1020.3    1/ 2
COVE POINT MD    0024   72     130/ 13/ 17 1019.9
SOLOMONS ISLAND  0024   73 78  110/ 11/ 12 1018.9
BISHOPS HEAD MD  0030          110/ 11/ 15   N/A
PINEY POINT MD   0030          130/ 12/ 13   N/A
POTOMAC MD       0100   72 77   90/ 14/ 14 1021.8    1/ 3
CAMBRIDGE MD     0030          110/  9/ 10   N/A
LEWISETTA VA     0030          110/ 12/ 14   N/A
RAPPAHANNOCK LGT 0030           40/ 16/ 19 1019.8R
STINGRAY PT      0030   73 78   80/ 16/ 19 1022.4R
YORK RVR RNG VA  0024   73      80/ 19/ 22 1019.1
YORKTOWN VA      0024   74 79   80/ 16/ 19 1018.5
JAMESTOWN VA     0100   70 81              1019.2    0
DOMINION TERM VA 0030           30/  4/  8   N/A
KIPTOPEKE VA     0030           40/  5/  9   N/A
CAPE HENRY VA    0024   72      40/ 19/ 22 1018.4
WILLOUBY STN VA  0030           50/ 16/ 20   N/A
S CRANEY ISL VA  0024   73      50/ 13/ 16 1018.1
CAPE HENRY BUOY  0100      75                N/A     6/ 6   2/12
1ST LANDING BUOY 0050   72      70/ 17/ 21 1018.0R
64NM E OF VA BCH 0050   72 74   40/ 21/ 27 1016.8R   8/ 9   3/ 9
DUCK PIER NC     0030   73      30/ 24/ 27 1016.9R
44100 DUCK FRF   0100      76                N/A     8/ 6   3/11
44056 DUCK FRF   0030      77                N/A     7/ 6   2/11
OREGON INLET NC  0024   73 80   20/ 19/ 25 1016.0
HATTERAS NC      0030   75      30/ 19/ 25 1015.1R
DIAMOND SHLS NC  0050   77 81   30/ 25/ 33 1013.8R   9/ 9   7/ 9
CAPE LOOKOUT NC  0000   77      20/ 20/ 24 1014.7R
$$